Regional Weather Roundup
Issued by NWS

Home | Current Version | Previous Version | Text Only | Print | Product List | Glossary Off
Versions: 1 2 3 4 5 6 7 8 9 10 11 12 13 14 15 16 17 18 19 20 21 22 23 24 25 26 27 28 29 30 31 32 33 34 35 36 37 38 39 40 41 42 43 44 45 46 47 48 49 50

554
ASUS43 KDTX 210410
RWRMI
MICHIGAN HOURLY REGIONAL WEATHER ROUNDUP
NATIONAL WEATHER SERVICE DETROIT/PONTIAC MI
ISSUED BY NATIONAL WEATHER SERVICE GRAND RAPIDS MI
1100 PM EST MON FEB 20 2017

NOTE: "FAIR" INDICATES FEW OR NO CLOUDS BELOW 12,000 FEET WITH NO
SIGNIFICANT WEATHER AND/OR OBSTRUCTION TO VISIBILITY.

MIZ047>049-052>055-059>063-066>070-074>076-081>083-210500-
SOUTHEAST LOWER MICHIGAN

CITY           SKY/WX    TMP DP  RH WIND       PRES   REMARKS
ADRIAN         CLOUDY    36  31  82 E9        30.13F WCI  29
ALMA           CLOUDY    42  31  66 SE9       30.06F
ANN ARBOR      CLOUDY    37  29  72 E6        30.13F WCI  32
BAD AXE        CLOUDY    38  32  78 SE8       30.14F WCI  32
DETROIT CITY   CLOUDY    38  30  73 SE9       30.16F WCI  31
DETROIT        CLOUDY    38  29  70 E6        30.15F WCI  33
FLINT          MOCLDY    40  29  64 SE10      30.11F WCI  33
GROSSE ILE     CLOUDY    39  30  71 E7        30.13F WCI  34
HILLSDALE      CLOUDY    36  32  87 SE10      30.08F WCI  28
HOWELL         MOCLDY    39  31  71 SE12      30.09F WCI  32

CITY           SKY/WX    TMP DP  RH WIND       PRES   REMARKS
JACKSON        CLOUDY    40  29  64 SE12      30.10F WCI  33
LANSING        CLOUDY    43  30  60 SE16      30.07F
MASON          CLOUDY    41  32  70 SE14      30.08F
MONROE         PTCLDY    37  32  84 E8        30.13F WCI  30
MT. CLEMENS    CLOUDY    35  31  83 S5        30.14F WCI  31
PONTIAC        CLOUDY    38  27  64 SE10      30.12F WCI  31
PORT HOPE        N/A     38  27  64 SE12G21   30.12F WCI  30
PORT HURON     PTCLDY    39  30  70 SE7       30.16F WCI  34
TRI CITIES     CLOUDY    42  32  67 SE12      30.08F
YPSILANTI      CLOUDY    38  30  73 E5        30.14F WCI  34
$$
MIZ043>046-050>051-056>058-064>065-071>073-077>080-210500-
SOUTHWEST LOWER MICHIGAN

CITY           SKY/WX    TMP DP  RH WIND       PRES   REMARKS
BATTLE CREEK   CLOUDY    45  32  60 SE9       30.05F
BENTON HARBOR  CLOUDY    55  40  56 SE12      29.98F
BIG RAPIDS     CLOUDY    45  33  62 SE13      30.00F
COLDWATER      CLOUDY    42  32  67 SE12      30.06F
HOLLAND        CLOUDY    52  37  56 SE17      29.98F
GRAND RAPIDS   CLOUDY    48  33  56 SE14G22   30.00F
KALAMAZOO      MOCLDY    47  32  56 SE9G17    30.04F
MARSHALL       CLOUDY    42  32  67 SE12      30.06F
MOUNT PLEASANT CLOUDY    42  32  68 SE10      30.04F
MUSKEGON       CLOUDY    54  36  50 SE17G24   29.97F
STURGIS        CLOUDY    44  34  68 SE12G17   30.04F
$$
MIZ016>042-210500-
NORTHERN LOWER MICHIGAN

CITY           SKY/WX    TMP DP  RH WIND       PRES   REMARKS
ALPENA         CLOUDY    36  33  89 SE10      30.08F WCI  28
BEAVER ISLAND  LGT RAIN  39  34  84 E14       29.92F WCI  30
BELLAIRE       CLOUDY    46  33  61 S12G18    29.95F
CADILLAC       CLOUDY    43  32  66 SE15G21   29.97F
CHARLEVOIX     CLOUDY    45  32  60 SE8       29.98S
GAYLORD        CLOUDY    40  30  67 S14G24    29.98F WCI  32
HOUGHTON LAKE  CLOUDY    40  31  70 SE12G21   30.01F WCI  33
MANISTEE       CLOUDY    50  35  56 SE8       29.92F
OSCODA         CLOUDY    38  32  80 S12       30.11F WCI  30
PELLSTON       LGT RAIN  38  30  73 SE12      29.98F WCI  30
TRAVERSE CITY  CLOUDY    47  33  58 VRB7G21   29.93F
LUDINGTON      CLOUDY    53  37  55 SE14G21   29.92F
$$
MIZ007>008-015-210500-
EASTERN UPPER MICHIGAN

CITY           SKY/WX    TMP DP  RH WIND       PRES   REMARKS
KINROSS        CLOUDY    34  27  75 SE21      30.01F WCI  22
MACKINAC ISLAN CLOUDY    34  30  86 E17G25    29.98F WCI  23
NEWBERRY       LGT RAIN  34  31  89 SE17G26   29.92F WCI  24
S. S. MARIE    CLOUDY    33  20  58 SE14G25   30.03F WCI  23
$$
MIZ004>006-011>014-085-210500-
CENTRAL UPPER MICHIGAN

CITY           SKY/WX    TMP DP  RH WIND       PRES   REMARKS
MANISTIQUE     LGT SNOW  35  35  97 E17G25    29.90F WCI  25
ESCANABA       LGT RAIN  40  37  89 SE5       29.85F
MENOMINEE      LGT RAIN  46  40  79 S23G32    29.81F
SAWYER-GWINN   RAIN      38  37  93 S22G28    29.79F WCI  28
$$
MIZ001>003-009>011-084-210500-
WESTERN UPPER MICHIGAN

CITY           SKY/WX    TMP DP  RH WIND       PRES   REMARKS
IRON MOUNTAIN  LGT RAIN  42  39  89 S13       29.79F FOG
HOUGHTON       LGT RAIN  42  38  85 S20G29    29.67F
COPPER HARBOR    N/A     39  37  92 SW9G20    29.70F WCI  33
IRONWOOD       MOCLDY    49  47  93 S13G21    29.63F
$$

ABBREVIATIONS USED IN REMARKS
   TC - TEMPERATURE IN CELSIUS
  WCI - WIND CHILL INDEX
   HX - HEAT INDEX
  VSB - VISIBILITY





USA.gov is the U.S. government's official web portal to all federal, state and local government web resources and services.